Vertical_Velocity
8 -3 0 -1 0 -2 3 -0 6 3 -2 3 2 3 3 2 1 10 -6 -0 -2 0 -3 1 -10 -0 -5 1 -1 -4 -6 -6 -3 -4 -1 0 -1 -1 1 0 1 -1 -1 -0 2 3 -2 -0 -1 -2 -9 1 -2 0
-2 -1 2 -1 2 3 -0 -1 5 -4 9 4 2 3 3 -2 4 1 -3 4 5 1 -2 -5 -4 -1 12 2 0 1 -1 0 -2 -2 -2 -2 -1 -1 -0 -2 -3 2 -2 -3 -2 -5 -1 -3 -1 0 2 -1 -2 -1
-0 -2 0 -4 -0 3 0 2 0 -1 -2 2 2 4 1 2 1 0 -3 1 6 4 -16 8 -17 -3 9 1 4 -1 1 1 -2 2 -1 -1 -1 -2 -1 -3 1 -2 -1 -1 -4 -1 -0 1 3 3 1 -0 4 -5
1 -0 -2 -0 1 5 5 3 0 -3 3 -1 -2 3 3 3 4 2 -2 -4 3 -0 -1 -14 4 -6 5 -0 4 1 3 1 -1 -2 -1 -0 -1 -1 -1 -3 0 -5 0 -0 -2 -2 -1 0 1 3 -3 6 3 -2
1 -0 -1 1 1 -1 2 3 2 -5 -3 -2 3 3 3 6 4 14 6 -8 2 -3 1 -5 -3 -3 -5 -4 -0 5 1 1 -1 -2 -1 -2 -0 -2 -1 1 -0 -2 -3 -3 -6 -3 -2 -2 -8 -6 -17 -14 5 2
2 3 3 2 2 0 -0 -0 4 -4 2 6 5 5 6 3 -4 -2 -1 -0 -2 -1 -3 -2 -0 -6 -1 -0 3 -0 -3 2 2 -4 -2 -1 -4 -2 1 -0 -4 -6 3 5 -6 4 -1 -1 -17 2 7 -2 9 3
1 -1 -0 0 -1 -2 -2 -1 3 1 2 2 5 1 -0 2 1 -3 -1 8 -0 1 -1 -3 -3 -1 7 8 5 5 3 -1 4 -2 1 -1 -1 5 1 1 -5 -6 0 2 4 9 -2 1 -16 -11 4 9 6 1
2 -1 -1 -2 1 9 -1 1 4 -1 -2 1 4 8 6 -3 3 0 -2 -0 4 1 -1 -1 -5 -4 7 -0 -2 3 1 4 1 -5 3 -0 1 2 1 -4 -5 -5 -4 -2 -12 6 -3 4 -3 -1 27 8 -1 1
-3 1 0 0 0 -2 -2 1 1 2 1 7 3 1 -2 -3 -5 0 -3 -3 6 -1 -2 -0 -1 -6 4 2 1 1 2 -2 2 -1 -0 0 -1 -2 -6 -2 -4 -7 -4 -12 3 5 2 3 -6 12 0 3 -1 -1
-1 3 2 2 1 -0 2 0 2 1 -1 -1 -3 -4 -2 -1 3 -3 1 -2 -3 -4 1 -2 2 -5 1 0 -2 -2 1 -1 -1 -8 2 2 -8 -15 -1 -1 -0 -6 -2 7 3 -5 -1 7 2 1 -0 1 2 1
0 1 1 -3 1 6 -1 1 1 0 1 -3 -3 -1 3 3 1 -0 -1 -3 0 -1 1 -3 -1 -2 -2 -5 -2 -1 -3 -2 1 -7 -1 -1 -2 -6 -5 -6 -4 5 -3 0 9 -9 5 10 -5 -3 -0 1 1 -1
-3 1 4 11 4 5 6 8 4 -3 2 1 -18 -4 -3 1 1 -5 -1 -1 0 -3 0 -1 -2 -2 -1 4 -2 -1 -1 -0 -3 -2 3 -0 -2 -3 -7 -0 -2 4 -1 8 -12 6 14 6 2 -0 2 -1 -2 -3
-1 1 4 12 15 6 1 -0 4 4 3 2 -0 -1 2 0 -4 -4 -1 -3 -1 -1 -0 0 -1 -9 -5 6 -1 -1 2 -4 -1 1 -3 -0 -3 -0 5 -0 -2 4 3 7 -5 2 -1 -0 5 2 -5 -3 -0 -3
-6 -4 -3 -2 -2 -3 -0 3 5 1 2 2 -2 -4 -7 -3 -2 -2 -2 -2 -4 0 -1 -1 -1 -1 -2 2 -1 4 -7 3 1 1 -1 -1 5 1 4 5 1 1 7 -10 -5 -4 5 0 1 -1 -2 -1 -4 0
0 -1 -1 -3 -4 -3 -3 -2 -2 -2 -3 -1 1 -4 -0 -6 0 0 1 1 -1 2 2 1 3 2 0 1 -0 0 3 -0 -0 0 0 1 4 4 -10 1 6 6 -1 -3 3 -20 -1 0 -2 -2 -4 -3 3 5
-3 -0 0 -1 -1 -3 -4 -3 -3 -1 0 1 2 -2 -1 -2 -4 -1 -1 -3 0 1 4 2 0 2 -0 -1 5 -1 2 0 2 -0 3 2 3 3 2 3 1 -0 2 3 1 -2 2 0 -2 -2 -1 3 5 -3
2 -4 -3 -2 -5 -3 -3 -3 -2 -2 0 1 -2 3 1 1 -2 -2 2 -1 -1 2 -0 1 2 -7 -1 1 1 -0 -1 0 1 4 3 1 0 -1 0 1 3 3 3 2 -2 -1 -0 -1 -2 -1 2 -1 -3 1
-1 0 1 1 -1 -1 -1 -0 -1 1 0 -2 -1 -4 -1 0 -1 1 0 2 2 1 0 -2 3 1 0 1 0 1 1 3 6 5 4 -1 -2 -0 2 2 1 2 2 1 -0 -0 1 0 1 2 2 2 0 -0
-1 -3 -0 1 2 1 -0 0 -1 0 -5 0 -2 1 1 -1 -2 1 -2 0 2 1 -0 1 1 0 0 1 1 1 1 1 0 -0 3 4 2 1 2 2 -2 -0 2 2 1 1 1 1 2 2 0 -0 -2 -1
1 3 1 -2 0 2 1 1 4 1 -1 -3 0 1 1 -4 0 -1 -1 2 -0 1 1 1 -0 1 1 4 -2 1 2 1 -2 -6 -6 -6 -4 -3 -1 -1 -2 -0 0 2 1 2 2 1 -3 -2 -1 -1 -1 0
-2 -2 -1 1 -1 -3 0 -0 -0 -1 1 0 1 -0 -3 2 0 1 -1 3 1 -0 0 0 0 -5 -5 5 3 1 2 1 0 1 -1 -6 -6 -2 -4 -1 -1 0 1 -1 -1 1 -0 -1 -3 -3 -3 -1 -1 -1
1 -0 1 4 0 1 1 0 -1 2 1 -1 0 1 0 -1 -1 -0 3 -1 1 3 5 2 5 4 2 2 6 2 2 6 6 2 2 1 -4 -3 -2 -1 -1 -0 1 0 1 1 3 -4 -2 -3 -1 0 0 0
1 2 1 0 3 3 -10 3 2 -0 -1 -3 2 1 -1 -0 -0 4 -2 2 6 1 6 1 1 2 -0 3 3 -0 -0 1 2 2 -2 -2 -1 0 3 2 1 0 6 8 5 2 0 0 0 -3 -2 -0 2 0
1 -1 2 2 7 -1 0 -1 1 1 1 1 1 -0 -0 -1 1 -1 1 1 2 3 -1 2 -2 -1 2 -0 -4 -2 -4 -2 -1 0 2 -1 -3 -1 1 5 2 1 1 2 2 2 0 -1 -1 -0 1 2 2 1
1 -0 2 -3 0 -2 -0 -2 -1 0 0 -0 1 -1 -2 -0 -1 -0 1 2 0 -0 1 0 0 1 -0 -2 -1 -2 2 -1 -3 -3 0 1 0 1 1 1 2 -0 -0 -1 -2 -1 -1 -1 -0 -1 1 1 2 1
-4 3 -2 3 -4 4 1 0 0 1 1 -0 -1 -1 0 -1 -1 2 1 1 2 0 1 -1 2 -0 0 1 -2 -4 -2 -1 -1 1 2 1 -0 1 -0 1 5 2 -1 -1 -1 -0 -0 -0 -0 1 0 1 1 1
-3 -2 1 1 -0 3 -2 -2 -1 3 0 1 0 -1 -0 0 1 3 2 -0 1 2 2 1 1 2 0 -1 0 -0 -2 -1 1 4 2 2 4 5 4 1 1 2 1 1 1 0 -1 -1 -0 1 1 1 0 0
5 -1 0 -8 -3 2 1 0 1 1 1 -1 -1 1 3 3 4 5 4 4 1 1 1 1 1 0 1 1 2 -0 -2 0 6 5 9 5 4 3 1 1 1 1 1 0 -1 -1 -0 0 -0 -1 -1 -0 1 1
-4 -6 3 -2 -2 -0 1 2 1 -0 0 4 2 -0 3 2 9 7 4 -0 -1 -3 -2 -1 0 2 4 5 2 -0 -1 -4 -9 -7 -4 0 -2 -4 2 3 2 1 -2 -2 -1 -1 -1 1 0 -0 -2 -2 0 4
-3 2 2 0 -0 -2 -6 3 -9 -2 4 4 3 -2 7 3 5 1 0 -1 -2 -0 3 3 0 -1 -1 -1 1 2 -1 -1 -1 -2 -1 -1 0 0 -0 -1 -2 -1 -0 1 -1 -3 -2 -2 -0 0 0 -1 -1 -2
1 3 1 2 -2 -8 -4 -0 -1 -2 2 -3 6 11 -1 -2 10 -1 -0 3 2 2 -1 -2 -0 -0 -3 -6 -6 -5 -3 0 1 2 2 3 2 1 -0 -1 -1 -1 -1 0 2 1 -2 -1 -1 -0 0 0 -1 -1
1 -1 1 -1 -5 -13 1 2 -0 1 -0 4 2 11 4 6 0 -0 7 2 -2 -4 -0 0 -0 -0 2 5 5 4 7 3 -1 -2 -1 -1 -1 -1 -1 -0 2 2 0 -0 1 2 2 -0 0 -0 -1 -1 -1 -1
-1 1 2 1 -2 -4 -7 2 -1 -2 2 1 1 2 4 1 3 10 3 -2 -1 1 -1 0 1 1 0 -0 0 -0 2 3 3 2 2 2 1 1 -1 1 -0 2 1 -0 1 1 0 1 -0 -1 0 0 -0 -0
Height
1304 1307 1309 1311 1313 1314 1319 1325 1331 1335 1340 1348 1355 1360 1366 1372 1377 1382 1387 1391 1395 1396 1394 1394 1394 1394 1391 1389 1392 1386 1386 1384 1385 1388 1390 1386 1387 1384 1380 1373 1374 1368 1368 1371 1376 1380 1379 1372 1370 1374 1371 1367 1367 1370
1297 1298 1300 1302 1306 1309 1313 1318 1325 1330 1334 1344 1351 1358 1363 1369 1375 1380 1385 1389 1393 1395 1393 1391 1390 1389 1390 1390 1390 1387 1388 1386 1387 1391 1393 1392 1390 1389 1384 1383 1369 1371 1371 1370 1371 1375 1371 1372 1370 1369 1370 1369 1367 1367
1291 1291 1294 1296 1299 1303 1308 1314 1321 1329 1334 1342 1349 1356 1362 1368 1374 1378 1381 1387 1391 1392 1391 1388 1384 1384 1386 1387 1388 1389 1387 1387 1387 1387 1388 1389 1389 1386 1386 1385 1375 1374 1371 1375 1372 1371 1369 1368 1367 1367 1368 1366 1367 1366
1285 1285 1287 1291 1295 1298 1303 1311 1320 1328 1333 1341 1348 1355 1361 1367 1372 1376 1378 1384 1388 1390 1390 1384 1381 1380 1381 1382 1384 1385 1387 1387 1388 1389 1389 1391 1391 1382 1384 1379 1378 1374 1373 1371 1372 1368 1365 1363 1364 1366 1364 1364 1365 1365
1284 1284 1285 1289 1294 1298 1305 1312 1319 1325 1333 1341 1348 1355 1362 1367 1371 1375 1378 1380 1385 1389 1388 1382 1379 1378 1379 1380 1381 1383 1384 1386 1387 1388 1390 1390 1385 1385 1381 1379 1372 1371 1370 1377 1378 1368 1367 1364 1365 1360 1362 1362 1360 1361
1292 1290 1291 1294 1299 1304 1309 1315 1319 1327 1335 1343 1350 1356 1362 1367 1371 1375 1378 1380 1382 1385 1388 1386 1378 1375 1376 1377 1378 1380 1381 1383 1384 1384 1384 1381 1381 1383 1384 1377 1363 1363 1362 1364 1365 1366 1363 1363 1363 1357 1359 1359 1357 1357
1305 1303 1303 1304 1306 1310 1314 1319 1326 1333 1340 1346 1353 1358 1363 1369 1372 1375 1377 1375 1378 1383 1386 1385 1379 1374 1372 1373 1375 1376 1378 1378 1378 1378 1377 1378 1377 1379 1377 1365 1362 1360 1358 1359 1360 1364 1362 1360 1358 1355 1352 1354 1355 1355
1317 1315 1314 1315 1316 1318 1323 1328 1333 1338 1343 1351 1356 1361 1366 1370 1374 1375 1375 1376 1378 1382 1385 1386 1380 1375 1371 1371 1373 1372 1373 1373 1372 1370 1370 1370 1371 1371 1365 1351 1353 1354 1354 1353 1352 1353 1352 1353 1354 1352 1352 1351 1353 1354
1329 1327 1326 1327 1328 1330 1332 1335 1339 1344 1350 1356 1360 1365 1370 1373 1376 1377 1376 1377 1380 1384 1383 1384 1385 1384 1371 1371 1371 1371 1371 1375 1366 1364 1361 1366 1363 1357 1348 1346 1344 1344 1346 1345 1345 1346 1346 1345 1344 1346 1348 1350 1351 1354
1339 1338 1337 1337 1336 1337 1339 1344 1347 1351 1356 1361 1366 1369 1372 1375 1376 1379 1381 1381 1382 1382 1382 1380 1377 1378 1374 1372 1373 1374 1371 1373 1370 1358 1354 1355 1345 1333 1331 1332 1335 1336 1338 1339 1342 1341 1341 1341 1340 1343 1345 1349 1350 1351
1348 1347 1346 1346 1346 1347 1350 1354 1357 1361 1364 1367 1369 1373 1375 1377 1379 1379 1380 1382 1382 1381 1377 1374 1373 1374 1372 1375 1376 1373 1373 1367 1365 1351 1351 1342 1331 1321 1319 1318 1320 1326 1332 1336 1338 1338 1335 1340 1339 1341 1344 1346 1346 1348
1357 1356 1356 1356 1358 1359 1362 1364 1366 1368 1368 1369 1370 1376 1378 1379 1379 1380 1384 1380 1379 1376 1372 1372 1370 1371 1370 1368 1369 1369 1369 1365 1357 1348 1347 1332 1320 1317 1315 1313 1310 1315 1324 1334 1338 1337 1335 1336 1339 1341 1342 1343 1345 1346
1368 1367 1368 1368 1368 1369 1370 1371 1372 1373 1373 1373 1374 1376 1378 1380 1382 1387 1394 1380 1383 1372 1370 1370 1370 1371 1370 1367 1366 1366 1367 1361 1349 1351 1339 1325 1322 1317 1310 1305 1303 1308 1320 1329 1337 1337 1340 1339 1339 1339 1341 1344 1344 1344
1375 1374 1374 1374 1374 1374 1375 1375 1375 1375 1375 1374 1374 1382 1382 1387 1379 1375 1373 1372 1369 1369 1369 1369 1369 1368 1366 1366 1365 1362 1357 1351 1344 1338 1327 1323 1323 1320 1313 1305 1305 1312 1320 1330 1335 1337 1338 1338 1339 1339 1341 1341 1342 1342
1379 1379 1379 1378 1378 1378 1377 1376 1376 1376 1375 1375 1374 1382 1376 1369 1368 1368 1368 1367 1365 1364 1364 1364 1363 1362 1362 1362 1359 1356 1348 1340 1335 1333 1330 1330 1328 1324 1321 1318 1316 1319 1325 1330 1332 1335 1337 1338 1338 1338 1339 1340 1339 1338
1381 1381 1380 1380 1380 1379 1378 1377 1376 1375 1374 1373 1372 1372 1369 1369 1367 1365 1365 1363 1361 1360 1358 1359 1358 1356 1354 1355 1347 1344 1339 1334 1333 1336 1335 1333 1331 1329 1328 1327 1327 1328 1330 1331 1332 1334 1335 1335 1336 1337 1338 1337 1335 1334
1382 1381 1380 1379 1377 1377 1376 1375 1374 1373 1373 1371 1368 1366 1366 1365 1364 1363 1362 1361 1360 1359 1358 1356 1352 1350 1344 1341 1339 1340 1342 1337 1338 1338 1337 1336 1335 1334 1332 1331 1331 1331 1331 1331 1332 1333 1334 1335 1335 1336 1336 1334 1334 1334
1383 1381 1380 1378 1376 1375 1374 1373 1373 1372 1370 1367 1366 1363 1363 1362 1360 1359 1359 1358 1358 1357 1356 1355 1353 1348 1349 1341 1341 1342 1342 1341 1340 1339 1339 1337 1336 1336 1335 1334 1333 1332 1332 1332 1333 1334 1334 1334 1334 1334 1334 1333 1333 1331
1382 1381 1380 1378 1377 1376 1374 1373 1372 1369 1365 1363 1361 1360 1359 1358 1357 1356 1356 1356 1355 1355 1354 1352 1351 1348 1347 1347 1346 1346 1344 1342 1341 1340 1339 1338 1336 1335 1334 1333 1332 1331 1330 1331 1332 1332 1333 1333 1333 1332 1332 1331 1330 1330
1380 1379 1378 1377 1377 1377 1374 1371 1369 1366 1362 1359 1357 1355 1355 1354 1353 1352 1352 1352 1352 1352 1352 1350 1349 1349 1349 1349 1348 1347 1346 1343 1341 1339 1338 1336 1334 1332 1331 1330 1329 1328 1328 1328 1329 1331 1331 1331 1331 1330 1330 1329 1329 1328
1379 1378 1377 1376 1376 1376 1374 1368 1366 1362 1359 1356 1354 1353 1351 1349 1349 1348 1348 1349 1350 1349 1349 1350 1350 1350 1349 1349 1348 1347 1346 1344 1342 1340 1339 1336 1334 1332 1329 1327 1326 1326 1326 1326 1327 1328 1329 1329 1329 1328 1328 1327 1326 1326
1378 1376 1375 1373 1374 1373 1370 1365 1364 1361 1359 1355 1353 1351 1349 1347 1346 1345 1346 1347 1349 1350 1350 1350 1351 1350 1349 1349 1348 1346 1345 1344 1342 1341 1339 1336 1333 1330 1328 1325 1324 1322 1322 1323 1324 1324 1325 1326 1326 1325 1324 1324 1324 1324
1377 1375 1373 1372 1371 1369 1365 1363 1362 1358 1358 1353 1350 1348 1347 1346 1344 1344 1346 1349 1352 1354 1352 1350 1350 1350 1349 1348 1346 1345 1344 1342 1340 1339 1337 1335 1332 1330 1327 1325 1323 1321 1321 1320 1321 1321 1321 1321 1321 1321 1321 1321 1321 1321
1376 1374 1372 1369 1365 1363 1363 1360 1358 1356 1352 1351 1348 1347 1345 1343 1343 1342 1348 1355 1357 1356 1353 1351 1350 1348 1347 1346 1344 1343 1342 1340 1338 1337 1335 1333 1331 1329 1327 1324 1323 1321 1321 1320 1320 1319 1319 1318 1318 1317 1318 1319 1319 1319
1378 1376 1375 1374 1371 1369 1365 1362 1357 1353 1350 1354 1348 1347 1344 1343 1346 1346 1351 1357 1356 1355 1354 1352 1350 1349 1347 1346 1345 1343 1341 1338 1335 1332 1331 1330 1329 1328 1326 1324 1323 1322 1321 1320 1319 1318 1317 1317 1316 1316 1316 1316 1317 1317
1381 1383 1383 1382 1379 1375 1370 1367 1363 1359 1355 1354 1350 1345 1344 1345 1347 1348 1355 1357 1356 1356 1354 1353 1351 1349 1347 1346 1344 1341 1339 1337 1335 1331 1328 1326 1326 1326 1325 1324 1323 1322 1321 1319 1318 1317 1317 1316 1315 1315 1314 1314 1315 1315
1391 1391 1389 1389 1386 1382 1378 1370 1364 1360 1360 1357 1353 1350 1346 1346 1346 1355 1357 1357 1357 1356 1354 1353 1351 1349 1348 1346 1345 1342 1339 1336 1333 1330 1326 1325 1325 1325 1324 1323 1322 1321 1320 1319 1318 1317 1316 1315 1315 1314 1313 1313 1312 1313
1392 1392 1395 1388 1386 1383 1381 1373 1368 1366 1366 1368 1363 1353 1350 1348 1354 1358 1358 1358 1357 1356 1354 1353 1351 1349 1348 1346 1344 1341 1338 1336 1333 1330 1327 1326 1326 1325 1325 1324 1323 1321 1320 1319 1317 1315 1314 1313 1313 1312 1312 1312 1311 1311
1393 1392 1389 1387 1385 1381 1377 1375 1374 1374 1374 1372 1367 1360 1357 1359 1360 1360 1359 1358 1356 1355 1354 1352 1351 1350 1348 1347 1344 1341 1339 1336 1334 1332 1330 1330 1328 1327 1326 1325 1323 1321 1320 1318 1317 1315 1313 1311 1310 1310 1309 1309 1310 1309
1390 1389 1388 1385 1385 1383 1377 1376 1372 1369 1367 1367 1365 1363 1363 1364 1363 1362 1360 1358 1357 1356 1355 1354 1352 1351 1348 1346 1345 1343 1341 1339 1337 1336 1334 1332 1330 1328 1326 1324 1322 1321 1319 1317 1315 1314 1312 1311 1310 1309 1309 1308 1308 1308
1388 1387 1385 1383 1380 1375 1371 1368 1364 1361 1358 1357 1356 1358 1360 1363 1363 1363 1362 1361 1359 1357 1355 1354 1352 1350 1349 1347 1345 1343 1341 1340 1338 1336 1334 1332 1329 1327 1324 1322 1321 1319 1318 1317 1314 1312 1311 1311 1310 1310 1309 1309 1308 1308
1386 1384 1383 1383 1375 1370 1367 1364 1360 1357 1354 1351 1351 1353 1357 1357 1362 1366 1366 1363 1361 1358 1357 1356 1354 1353 1352 1349 1347 1345 1343 1340 1337 1334 1332 1329 1327 1325 1322 1320 1319 1318 1317 1315 1314 1312 1310 1310 1309 1309 1308 1308 1308 1308
1383 1381 1380 1378 1375 1371 1369 1367 1361 1356 1353 1352 1354 1354 1354 1357 1362 1367 1367 1365 1364 1361 1359 1358 1357 1355 1353 1350 1348 1345 1342 1339 1336 1334 1331 1329 1327 1324 1322 1320 1318 1317 1315 1314 1313 1311 1310 1309 1309 1309 1308 1308 1307 1307